Latest Weather Observations for Noarlunga

IDS60801

Issued at 11:01 am CST Tuesday 27 June 2017 (issued every 30 minutes, with the page automatically refreshed every 10 minutes)

About weather observations | Map of weather stations | Latest weather observations for SA | Other Formats
Station Details ID: 023885 Name: NOARLUNGA Lat: -35.16 Lon: 138.51 Height: 55.0 m
Data from the previous 72 hours. | See also: Recent months at Noarlunga
Date/Time
CST
Temp
°C
App
Temp
°C
Dew
Point
°C
Rel
Hum
%
Delta-T
°C
Wind Press
QNH
hPa
Press
MSL
hPa
Rain since
9am
mm
Dir  Spd
km/h
Gust
km/h
Spd
kts
Gust
kts
27/11:00am 15.1 11.6 5.6 53 4.5 N 13 20 7 11 - - 0.0
27/10:30am 15.0 11.6 5.8 54 4.4 N 13 19 7 10 - - 0.0
27/10:00am 14.8 12.5 5.6 54 4.4 N 7 15 4 8 - - 0.0
27/09:30am 13.8 13.1 6.9 63 3.4 CALM 0 2 0 1 - - 0.0
27/09:00am 13.0 11.0 6.1 63 3.3 NE 6 9 3 5 - - 0.0
27/08:30am 11.7 10.2 6.6 71 2.4 NE 4 7 2 4 - - 0.0
27/08:00am 10.8 9.3 6.7 76 1.9 SE 4 6 2 3 - - 0.0
27/07:30am 10.9 9.7 6.6 75 2.0 SE 2 4 1 2 - - 0.0
27/07:00am 10.6 9.8 6.7 77 1.8 CALM 0 0 0 0 - - 0.0
27/06:30am 10.1 9.4 7.0 81 1.5 CALM 0 4 0 2 - - 0.0
27/06:00am 10.3 9.6 7.0 80 1.6 CALM 0 0 0 0 - - 0.0
27/05:30am 10.1 9.4 6.8 80 1.6 CALM 0 0 0 0 - - 0.0
27/05:00am 10.2 9.5 6.9 80 1.6 CALM 0 4 0 2 - - 0.0
27/04:30am 10.4 8.9 6.9 79 1.7 ENE 4 6 2 3 - - 0.0
27/04:00am 10.4 9.7 6.9 79 1.7 CALM 0 4 0 2 - - 0.0
27/03:30am 10.5 9.0 7.0 79 1.7 E 4 6 2 3 - - 0.0
27/03:00am 10.5 8.7 7.0 79 1.7 ENE 6 7 3 4 - - 0.0
27/02:30am 10.5 9.0 7.0 79 1.7 ENE 4 6 2 3 - - 0.0
27/02:00am 10.9 9.2 7.4 79 1.7 ENE 6 7 3 4 - - 0.0
27/01:30am 10.8 9.0 7.3 79 1.7 ENE 6 7 3 4 - - 0.0
27/01:00am 11.1 9.4 7.4 78 1.8 ENE 6 9 3 5 - - 0.0
27/12:30am 10.8 9.8 7.3 79 1.7 ENE 2 6 1 3 - - 0.0
27/12:00am 10.9 9.2 7.4 79 1.7 ENE 6 7 3 4 - - 0.0
 
Date/Time
CST
Temp
°C
App
Temp
°C
Dew
Point
°C
Rel
Hum
%
Delta-T
°C
Wind Press
QNH
hPa
Press
MSL
hPa
Rain since
9am
mm
Dir  Spd
km/h
Gust
km/h
Spd
kts
Gust
kts
26/11:30pm 11.3 9.4 7.4 77 1.9 ENE 7 9 4 5 - - 0.0
26/11:00pm 11.5 9.8 7.6 77 1.9 ENE 6 9 3 5 - - 0.0
26/10:30pm 11.3 9.6 7.6 78 1.8 ENE 6 9 3 5 - - 0.0
26/10:00pm 11.9 10.2 7.6 75 2.1 ENE 6 7 3 4 - - 0.0
26/09:30pm 11.9 10.6 7.8 76 2.0 ENE 4 7 2 4 - - 0.0
26/09:00pm 11.9 10.3 8.0 77 1.9 ENE 6 9 3 5 - - 0.0
26/08:30pm 11.8 9.3 8.1 78 1.8 ENE 11 15 6 8 - - 0.0
26/08:00pm 11.7 9.6 8.2 79 1.7 ENE 9 13 5 7 - - 0.0
26/07:30pm 11.1 8.9 7.8 80 1.6 ENE 9 13 5 7 - - 0.0
26/07:00pm 10.7 8.9 7.8 82 1.4 E 7 9 4 5 - - 0.0
26/06:30pm 10.5 8.5 7.2 80 1.6 ESE 7 9 4 5 - - 0.0
26/06:00pm 10.8 9.4 7.1 78 1.8 W 4 6 2 3 - - 0.0
26/05:30pm 12.1 11.6 8.0 76 2.0 CALM 0 0 0 0 - - 0.0
26/05:00pm 13.1 12.6 8.0 71 2.5 CALM 0 2 0 1 - - 0.0
26/04:30pm 14.1 12.9 8.1 67 3.0 WNW 4 4 2 2 - - 0.0
26/04:00pm 13.7 12.0 8.3 70 2.7 NW 7 11 4 6 - - 0.0
26/03:30pm 14.6 12.7 7.4 62 3.6 NW 7 11 4 6 - - 0.0
26/03:00pm 15.2 13.6 8.7 65 3.3 NNW 7 11 4 6 - - 0.0
26/02:30pm 15.0 13.3 8.3 64 3.4 NNW 7 11 4 6 - - 0.0
26/02:00pm 14.7 12.6 8.4 66 3.2 NNW 9 13 5 7 - - 0.0
26/01:30pm 14.2 11.8 8.6 69 2.8 NNW 11 17 6 9 - - 0.0
26/01:00pm 14.0 12.0 8.8 71 2.6 NW 9 15 5 8 - - 0.0
26/12:30pm 13.7 11.8 9.2 74 2.3 WNW 9 17 5 9 - - 0.0
26/12:00pm 13.9 12.3 8.1 68 2.9 SW 6 7 3 4 - - 0.0
26/11:30am 14.4 13.8 9.0 70 2.8 SSE 2 6 1 3 - - 0.0
26/11:00am 12.6 12.0 9.1 79 1.8 N 2 6 1 3 - - 0.0
26/10:30am 12.2 11.3 9.2 82 1.5 NE 4 7 2 4 - - 0.0
26/10:00am 12.0 11.1 9.2 83 1.4 NE 4 7 2 4 - - 0.0
26/09:30am 11.8 10.9 9.4 85 1.2 ENE 4 7 2 4 - - 0.0
26/09:00am 10.0 9.3 8.4 90 0.8 ENE 2 4 1 2 - - 0.6
26/08:30am 8.2 6.7 6.7 90 0.7 NNW 4 6 2 3 - - 0.6
26/08:00am 8.5 7.8 7.0 90 0.7 CALM 0 2 0 1 - - 0.6
26/07:30am 8.6 7.2 7.1 90 0.7 E 4 6 2 3 - - 0.6
26/07:00am 9.0 6.7 7.5 90 0.7 NE 9 13 5 7 - - 0.6
26/06:30am 9.4 7.2 7.8 90 0.8 NE 9 13 5 7 - - 0.6
26/06:00am 9.3 7.4 7.7 90 0.8 NE 7 9 4 5 - - 0.6
26/05:30am 9.6 8.4 7.9 89 0.8 NE 4 6 2 3 - - 0.6
26/05:00am 9.8 8.2 8.1 89 0.8 NE 6 7 3 4 - - 0.6
26/04:30am 9.9 8.3 8.2 89 0.8 NE 6 9 3 5 - - 0.6
26/04:00am 9.9 8.7 8.2 89 0.8 ENE 4 7 2 4 - - 0.6
26/03:30am 9.9 8.7 8.2 89 0.8 ENE 4 6 2 3 - - 0.6
26/03:00am 9.4 7.5 7.7 89 0.8 NE 7 7 4 4 - - 0.6
26/02:30am 9.6 8.0 7.9 89 0.8 ENE 6 9 3 5 - - 0.6
26/02:00am 9.8 8.9 7.9 88 0.9 E 2 4 1 2 - - 0.6
26/01:30am 10.2 9.1 8.3 88 0.9 NE 4 7 2 4 - - 0.6
26/01:00am 10.4 9.6 8.0 85 1.2 SW 2 4 1 2 - - 0.6
26/12:30am 11.1 10.4 8.5 84 1.3 WNW 2 4 1 2 - - 0.6
26/12:00am 11.5 10.2 9.2 86 1.2 W 6 17 3 9 - - 0.6
 
Date/Time
CST
Temp
°C
App
Temp
°C
Dew
Point
°C
Rel
Hum
%
Delta-T
°C
Wind Press
QNH
hPa
Press
MSL
hPa
Rain since
9am
mm
Dir  Spd
km/h
Gust
km/h
Spd
kts
Gust
kts
25/11:30pm 11.4 10.4 9.0 85 1.2 SSW 4 9 2 5 - - 0.4
25/11:00pm 11.4 9.9 8.6 83 1.4 NW 6 9 3 5 - - 0.4
25/10:30pm 11.7 10.1 8.9 83 1.4 WNW 7 11 4 6 - - 0.4
25/10:00pm 12.0 9.7 9.0 82 1.5 WNW 11 17 6 9 - - 0.4
25/09:30pm 12.6 10.1 9.6 82 1.5 WNW 13 22 7 12 - - 0.4
25/09:00pm 12.8 10.9 8.9 77 2.0 NW 9 13 5 7 - - 0.4
25/08:30pm 12.5 10.1 8.6 77 1.9 WNW 11 19 6 10 - - 0.4
25/08:00pm 12.5 10.5 8.8 78 1.9 W 9 13 5 7 - - 0.4
25/07:30pm 13.2 10.6 7.9 70 2.6 WSW 11 19 6 10 - - 0.4
25/07:00pm 12.5 11.6 9.1 80 1.7 SSW 4 6 2 3 - - 0.4
25/06:30pm 13.4 9.7 8.0 70 2.7 WSW 17 30 9 16 - - 0.4
25/06:00pm 12.7 10.2 6.5 66 3.0 W 9 19 5 10 - - 0.4
25/05:30pm 12.6 10.4 6.2 65 3.0 W 7 13 4 7 - - 0.4
25/05:00pm 13.4 10.5 6.3 62 3.4 WNW 11 19 6 10 - - 0.2
25/04:30pm 13.7 12.0 8.3 70 2.7 NW 7 13 4 7 - - 0.2
25/04:00pm 13.8 12.1 8.4 70 2.7 WNW 7 11 4 6 - - 0.2
25/03:30pm 13.0 11.4 8.9 76 2.1 WNW 7 9 4 5 - - 0.2
25/03:00pm 13.1 11.9 9.4 78 1.9 WSW 6 13 3 7 - - 0.0
25/02:30pm 13.0 11.7 9.8 81 1.6 W 7 15 4 8 - - 0.0
25/02:00pm 13.2 11.6 8.9 75 2.2 W 7 11 4 6 - - 0.0
25/01:30pm 12.8 11.4 8.7 76 2.1 WSW 6 15 3 8 - - 0.0
25/01:00pm 12.7 10.7 8.8 77 2.0 W 9 17 5 9 - - 0.0
25/12:30pm 12.4 8.8 8.5 77 1.9 WSW 17 24 9 13 - - 0.0
25/12:00pm 12.5 10.6 9.0 79 1.8 SW 9 17 5 9 - - 0.0
25/11:30am 12.5 10.7 9.3 81 1.6 WSW 9 15 5 8 - - 0.0
25/11:00am 13.0 12.1 9.4 79 1.8 W 4 6 2 3 - - 0.0
25/10:30am 12.8 12.3 9.3 79 1.8 NW 2 6 1 3 - - 0.0
25/10:00am 12.8 11.9 9.3 79 1.8 NNE 4 9 2 5 - - 0.0
25/09:30am 12.8 11.9 9.4 80 1.7 NNE 4 6 2 3 - - 0.0
25/09:00am 11.9 10.6 9.3 84 1.3 NE 6 9 3 5 - - 0.6
25/08:30am 10.5 8.8 8.4 87 1.0 NE 7 11 4 6 - - 0.6
25/08:00am 10.2 8.1 8.3 88 0.9 NE 9 13 5 7 - - 0.6
25/07:30am 10.2 8.5 8.3 88 0.9 NNE 7 9 4 5 - - 0.6
25/07:00am 10.2 8.6 8.1 87 1.0 NE 6 7 3 4 - - 0.6
25/06:30am 10.1 8.5 8.2 88 0.9 S 6 11 3 6 - - 0.6
25/06:00am 9.9 8.7 8.2 89 0.8 NNE 4 7 2 4 - - 0.6
25/05:30am 9.8 8.2 7.9 88 0.9 NE 6 7 3 4 - - 0.6
25/05:00am 10.1 8.9 7.9 86 1.1 S 4 4 2 2 - - 0.6
25/04:30am 10.6 8.1 8.2 85 1.2 NNE 11 17 6 9 - - 0.0
25/04:00am 9.9 7.6 7.3 84 1.2 NE 9 11 5 6 - - 0.0
25/03:30am 9.9 8.2 7.7 86 1.1 NNE 6 7 3 4 - - 0.0
25/03:00am 10.0 8.2 7.8 86 1.1 NNE 7 9 4 5 - - 0.0
25/02:30am 10.1 8.9 7.9 86 1.1 N 4 4 2 2 - - 0.0
25/02:00am 10.4 8.8 8.2 86 1.1 NE 6 7 3 4 - - 0.0
25/01:30am 9.9 8.2 7.7 86 1.1 NE 6 6 3 3 - - 0.0
25/01:00am 10.4 9.2 8.0 85 1.2 NE 4 6 2 3 - - 0.0
25/12:30am 10.1 7.9 7.9 86 1.1 NE 9 11 5 6 - - 0.0
25/12:00am 9.7 8.4 7.5 86 1.0 NE 4 6 2 3 - - 0.0
 
Date/Time
CST
Temp
°C
App
Temp
°C
Dew
Point
°C
Rel
Hum
%
Delta-T
°C
Wind Press
QNH
hPa
Press
MSL
hPa
Rain since
9am
mm
Dir  Spd
km/h
Gust
km/h
Spd
kts
Gust
kts
24/11:30pm 10.0 8.3 7.4 84 1.2 NE 6 7 3 4 - - 0.0
24/11:00pm 10.2 8.5 7.6 84 1.2 NE 6 9 3 5 - - 0.0
24/10:30pm 10.2 8.8 7.3 82 1.4 E 4 7 2 4 - - 0.0
24/10:00pm 10.9 9.6 7.8 81 1.5 NE 4 6 2 3 - - 0.0
24/09:30pm 11.5 9.9 8.2 80 1.6 NE 6 7 3 4 - - 0.0
24/09:00pm 11.5 10.3 8.2 80 1.6 NE 4 6 2 3 - - 0.0
24/08:30pm 11.6 10.4 7.9 78 1.8 E 4 6 2 3 - - 0.0
24/08:00pm 11.8 10.6 7.9 77 1.9 E 4 6 2 3 - - 0.0
24/07:30pm 12.4 10.8 8.1 75 2.1 SSE 6 7 3 4 - - 0.0
24/07:00pm 12.7 12.3 8.2 74 2.2 CALM 0 0 0 0 - - 0.0
24/06:30pm 13.0 12.6 8.3 73 2.3 CALM 0 0 0 0 - - 0.0
24/06:00pm 13.5 13.1 8.1 70 2.7 CALM 0 2 0 1 - - 0.0
24/05:30pm 13.7 12.5 8.1 69 2.8 SW 4 6 2 3 - - 0.0
24/05:00pm 14.2 13.0 8.2 67 3.0 WSW 4 6 2 3 - - 0.0
24/04:30pm 15.2 13.5 8.2 63 3.5 SW 7 9 4 5 - - 0.0
24/04:00pm 15.9 14.2 7.4 57 4.2 W 6 7 3 4 - - 0.0
24/03:30pm 16.1 14.6 8.3 60 4.0 W 6 9 3 5 - - 0.0
24/03:00pm 16.1 14.5 8.8 62 3.7 WNW 7 11 4 6 - - 0.0
24/02:30pm 16.1 14.5 8.8 62 3.7 WNW 7 11 4 6 - - 0.0
24/02:00pm 16.1 14.5 8.8 62 3.7 WNW 7 11 4 6 - - 0.0
24/01:30pm 15.9 14.1 9.3 65 3.4 WNW 9 13 5 7 - - 0.0
24/01:00pm 16.2 14.1 9.8 66 3.4 WNW 11 15 6 8 - - 0.0
24/12:30pm 16.2 14.7 9.2 63 3.6 WNW 7 13 4 7 - - 0.0
24/12:00pm 15.8 14.3 9.0 64 3.5 WNW 7 11 4 6 - - 0.0
24/11:30am 15.2 13.5 9.8 70 2.8 WNW 9 13 5 7 - - 0.0

Other Formats:

Comma delimited format used in spreadsheet applications
http://www.bom.gov.au/fwo/IDS60801/IDS60801.94808.axf

JavaScript Object Notation format (JSON) in row-major order
http://www.bom.gov.au/fwo/IDS60801/IDS60801.94808.json